Regional Weather Roundup
Issued by NWS

Home | Current Version | Previous Version | Text Only | Print | Product List | Glossary Off
Versions: 1 2 3 4 5 6 7 8 9 10 11 12 13 14 15 16 17 18 19 20 21 22 23 24 25 26 27 28 29 30 31 32 33 34 35 36 37 38 39 40 41 42 43 44 45 46 47 48 49 50

000
ASUS43 KDTX 280101
RWRMI
MICHIGAN HOURLY REGIONAL WEATHER ROUNDUP
NATIONAL WEATHER SERVICE DETROIT/PONTIAC MI
900 PM EDT TUE JUN 27 2017

NOTE: "FAIR" INDICATES FEW OR NO CLOUDS BELOW 12,000 FEET WITH NO
SIGNIFICANT WEATHER AND/OR OBSTRUCTION TO VISIBILITY.

MIZ047>049-052>055-059>063-066>070-074>076-081>083-280200-
SOUTHEAST LOWER MICHIGAN

CITY           SKY/WX    TMP DP  RH WIND       PRES   REMARKS
ADRIAN         CLEAR     67  45  45 NW5       30.05S
ALMA           CLEAR     65  48  53 SW5       30.03S
ANN ARBOR      CLEAR     65  46  50 W7        30.03R
BAD AXE        CLEAR     62  52  70 S3        30.01R
CARO           PTCLDY    60  57  89 CALM      30.00S
DETROIT CITY   PTCLDY    70  45  40 W7        30.02S
DETROIT        MOCLDY    70  46  42 W7        30.03S
FLINT          CLEAR     66  47  50 W7        30.02R
GROSSE ILE     CLOUDY    68  51  53 SW3       30.02S
HILLSDALE      CLEAR     63  43  48 W5        30.05S
HOWELL         CLEAR     66  41  40 W8        30.03S

CITY           SKY/WX    TMP DP  RH WIND       PRES   REMARKS
JACKSON        CLEAR     65  44  46 W6        30.05R
LAMBERTVILLE   CLEAR     68  46  46 CALM      30.04R
LANSING        CLEAR     68  45  43 W7        30.04R
LAPEER         FAIR      62  56  79 CALM      30.03R
MASON          CLEAR     67  47  48 W5        30.04S
MONROE         PTCLDY    67  47  49 W3        30.03R
MT. CLEMENS    MOCLDY    66  53  63 E6        30.00S
PONTIAC        MOCLDY    68  47  46 W9        30.02R
PORT HOPE        N/A     63  51  65 CALM      29.98R
PORT HURON     MOCLDY    61  55  82 CALM      30.02S
TRI CITIES     CLEAR     66  52  60 W9        30.01R
MIDLAND        FAIR      67  47  48 W5        30.00R
TROY           CLEAR     70  42  36 W6        30.04S
SAGINAW HB     CLEAR     64  46  52 SW5       30.00R
$$
MIZ043>046-050>051-056>058-064>065-071>073-077>080-280200-
SOUTHWEST LOWER MICHIGAN

CITY           SKY/WX    TMP DP  RH WIND       PRES   REMARKS
BATTLE CREEK   CLEAR     65  46  50 W6        30.06S
BENTON HARBOR  CLEAR     69  42  37 CALM      30.05S
BIG RAPIDS     CLEAR     63  50  61 SW3       30.02S
COLDWATER      CLEAR     65  41  41 W5        30.06S
FREMONT        FAIR      64  47  54 SW3       30.03S
HOLLAND        CLEAR     65  49  56 SW6       30.05S
GRAND RAPIDS   PTCLDY    67  47  48 W8        30.04S
IONIA          FAIR      67  46  46 W6        30.03S
KALAMAZOO      CLEAR     67  41  38 W5        30.06S
LUDINGTON      CLOUDY    64  52  65 SW8       30.00F
MARSHALL       CLEAR     65  44  47 W5        30.05S
MOUNT PLEASANT CLEAR     66  48  52 W3        30.01S
MUSKEGON       CLEAR     64  53  67 S8        30.03F
SOUTH HAVEN    CLEAR     67  51  55 CALM      30.05S
$$
MIZ016>042-280200-
NORTHERN LOWER MICHIGAN

CITY           SKY/WX    TMP DP  RH WIND       PRES   REMARKS
ALPENA         CLEAR     65  47  52 CALM      29.98R
BELLAIRE       CLEAR     61  52  73 CALM      29.99S
CADILLAC       CLEAR     63  48  57 W5        30.01S
CHARLEVOIX     CLEAR     63  49  61 CALM      30.01S
FRANKFORT      CLEAR     63  53  69 SW5       30.00S
GAYLORD        CLEAR     63  43  48 W5        30.00S
GRAYLING       CLEAR     63  47  57 CALM      30.01S
HARBOR SPRINGS PTCLDY    62  50  66 W5        29.98S
HOUGHTON LAKE  CLEAR     64  47  53 W8        30.01R
MANISTEE       CLEAR     64  51  62 S3        30.00R
OSCODA         CLOUDY    64  52  65 SW9       29.97S
PELLSTON       PTCLDY    62  48  60 SW3       29.98S
ROGERS CITY    CLEAR     63  47  55 W5        29.98S
TRAVERSE CITY  PTCLDY    68  48  48 SW3       29.98R
$$
MIZ007>008-015-280200-
EASTERN UPPER MICHIGAN

CITY           SKY/WX    TMP DP  RH WIND       PRES   REMARKS
KINROSS        MOCLDY    62  51  67 SW3       29.96S
MACKINAC ISLAN PTCLDY    60  52  74 SW7       29.96F
NEWBERRY       PTCLDY    60  50  69 SW9       29.94S
S. S. MARIE    PTCLDY    60  48  64 SW5       29.94S
MUNISING         N/A     68  53  58 S9        29.90S
$$
MIZ004>006-011>014-085-280200-
CENTRAL UPPER MICHIGAN

CITY           SKY/WX    TMP DP  RH WIND       PRES   REMARKS
MANISTIQUE     CLEAR     58  55  89 SW7       29.95S
ESCANABA       CLEAR     64  57  78 S9        29.93F
MENOMINEE      CLEAR     70  50  49 SW5       29.93F
SAWYER-GWINN   CLEAR     68  52  56 S12G17    29.91F
$$
MIZ001>003-009>011-084-280200-
WESTERN UPPER MICHIGAN

CITY           SKY/WX    TMP DP  RH WIND       PRES   REMARKS
IRON MOUNTAIN  CLEAR     71  46  40 SW7       29.91S
HOUGHTON       CLEAR     64  47  53 CALM      29.86F
COPPER HARBOR    N/A     65  47  52 SW8       29.86F
IRONWOOD       CLEAR     69  48  47 SW8       29.89S
$$

ABBREVIATIONS USED IN REMARKS
   TC - TEMPERATURE IN CELSIUS
  WCI - WIND CHILL INDEX
   HX - HEAT INDEX
  VSB - VISIBILITY





USA.gov is the U.S. government's official web portal to all federal, state and local government web resources and services.